Date String (YYYY-MM-DD hh:mm:ss) UTC,Instrument flags,Ambient pressure (hPa),Sample flow (lpm),Bypass flow (lpm),Sample temperature (°C),Ambient temperature (°C),ASC tube jacket temperature (°C),LED temperature (°C),Box temperature (°C),Sample RH (%),Span deviation,Mass concentration (μg/m³),Mass concentration (μg/m³),Mass concentration (μg/m³)
DateTimeUTC,F1_M11,P_M11,Q1_M11,Q2_M11,T1_M11,T2_M11,T3_M11,T4_M11,T5_M11,U1_M11,ZSPAN_M11,X2_M11,X0_M11,X1_M11
2021-10-11 18:00:00,,0819.9,5.00,0.00,30.3,29.4,00.0,39.5,32.0,12.0,0000.0,0003.82,0008.56,0003.35
2021-10-11 18:01:00,,0819.9,5.01,0.00,30.3,29.4,00.0,39.5,32.0,12.0,0000.0,0003.80,0008.79,0003.35
2021-10-11 18:02:00,,0819.9,5.00,0.00,30.3,29.4,00.0,39.5,32.0,12.1,0000.0,0003.77,0008.65,0003.35
2021-10-11 18:03:00,,0819.8,5.01,0.00,30.3,29.4,00.0,39.5,32.0,12.1,0000.0,0003.78,0008.92,0003.36
2021-10-11 18:04:00,,0819.8,4.99,0.00,30.3,29.4,00.0,39.5,31.9,12.1,0000.0,0003.78,0009.18,0003.37
2021-10-11 18:05:00,,0819.8,5.01,0.00,30.2,29.3,00.0,39.4,31.9,12.2,0000.0,0003.80,0009.51,0003.38
2021-10-11 18:06:00,,0819.7,4.99,0.00,30.2,29.2,00.0,39.4,31.8,12.1,0000.0,0003.86,0009.92,0003.40
2021-10-11 18:07:00,,0819.7,5.00,0.00,30.2,29.2,00.0,39.4,31.8,12.2,0000.0,0003.87,0010.18,0003.40
2021-10-11 18:08:00,,0819.7,4.99,0.00,30.1,29.2,00.0,39.4,31.7,12.4,0000.0,0003.94,0010.33,0003.40
2021-10-11 18:09:00,,0819.7,4.99,0.00,30.1,29.2,00.0,39.4,31.8,12.2,0000.0,0003.96,0010.48,0003.40
2021-10-11 18:10:00,,0819.7,5.00,0.00,30.1,29.1,00.0,39.4,31.7,11.9,0000.0,0003.93,0011.00,0003.40
2021-10-11 18:11:00,,0819.6,5.00,0.00,30.1,29.1,00.0,39.3,31.7,12.1,0000.0,0003.94,0010.14,0003.41
2021-10-11 18:12:00,,0819.7,4.99,0.00,30.1,29.1,00.0,39.3,31.7,12.4,0000.0,0004.04,0010.01,0003.42
2021-10-11 18:13:00,,0819.6,5.00,0.00,30.0,29.1,00.0,39.3,31.7,12.2,0000.0,0004.10,0010.18,0003.43
2021-10-11 18:14:00,,0819.7,5.01,0.00,30.0,29.1,00.0,39.3,31.7,12.3,0000.0,0004.14,0010.07,0003.44
2021-10-11 18:15:00,,0819.6,4.98,0.00,30.0,29.1,00.0,39.3,31.6,12.3,0000.0,0004.18,0010.69,0003.45
2021-10-11 18:16:00,,0819.6,5.00,0.00,30.0,29.1,00.0,39.3,31.6,12.3,0000.0,0004.23,0011.54,0003.47
2021-10-11 18:17:00,,0819.5,5.00,0.00,30.0,29.1,00.0,39.2,31.6,12.3,0000.0,0004.24,0012.68,0003.48
2021-10-11 18:18:00,,0819.5,5.01,0.00,30.0,29.1,00.0,39.2,31.6,12.2,0000.0,0004.24,0012.89,0003.47
2021-10-11 18:19:00,,0819.5,5.01,0.00,30.0,29.1,00.0,39.2,31.6,12.5,0000.0,0004.23,0013.94,0003.47
2021-10-11 18:20:00,,0819.5,4.99,0.00,30.0,29.2,00.0,39.2,31.6,12.2,0000.0,0004.27,0015.07,0003.49
2021-10-11 18:21:00,,0819.4,5.00,0.00,30.0,29.2,00.0,39.2,31.6,12.2,0000.0,0004.34,0014.65,0003.50
2021-10-11 18:22:00,,0819.4,5.01,0.00,29.9,29.2,00.0,39.2,31.6,12.3,0000.0,0004.39,0014.96,0003.50
2021-10-11 18:23:00,,0819.4,5.00,0.00,29.9,29.1,00.0,39.2,31.6,12.5,0000.0,0004.36,0014.95,0003.51
2021-10-11 18:24:00,,0819.4,4.99,0.00,29.9,29.1,00.0,39.2,31.6,12.5,0000.0,0004.36,0015.11,0003.51
2021-10-11 18:25:00,,0819.3,5.01,0.00,29.9,29.2,00.0,39.2,31.6,12.2,0000.0,0004.36,0014.81,0003.53
2021-10-11 18:26:00,,0819.3,5.01,0.00,29.9,29.2,00.0,39.2,31.6,12.2,0000.0,0004.37,0013.94,0003.54
2021-10-11 18:27:00,,0819.3,5.00,0.00,29.9,29.2,00.0,39.2,31.6,12.3,0000.0,0004.38,0013.23,0003.53
2021-10-11 18:28:00,,0819.3,4.99,0.00,29.9,29.2,00.0,39.1,31.6,12.5,0000.0,0004.38,0011.90,0003.53
2021-10-11 18:29:00,,0819.3,5.00,0.00,29.9,29.2,00.0,39.1,31.6,12.3,0000.0,0004.40,0011.46,0003.54
2021-10-11 18:30:00,,0819.2,5.00,0.00,29.9,29.2,00.0,39.1,31.6,12.4,0000.0,0004.39,0010.54,0003.54
2021-10-11 18:31:00,,0819.3,5.01,0.00,29.9,29.1,00.0,39.1,31.6,12.3,0000.0,0004.37,0009.08,0003.56
2021-10-11 18:32:00,,0819.2,4.99,0.00,29.9,29.1,00.0,39.1,31.6,12.4,0000.0,0004.34,0009.35,0003.55
2021-10-11 18:33:00,,0819.3,5.01,0.00,29.9,29.1,00.0,39.1,31.6,12.4,0000.0,0004.32,0009.59,0003.57
2021-10-11 18:34:00,,0819.2,4.99,0.00,29.9,29.1,00.0,39.1,31.5,12.3,0000.0,0004.31,0009.57,0003.57
2021-10-11 18:35:00,,0819.1,4.99,0.00,29.9,29.1,00.0,39.1,31.5,12.2,0000.0,0004.34,0009.81,0003.58
2021-10-11 18:36:00,,0819.1,5.01,0.00,29.9,29.2,00.0,39.1,31.6,12.3,0000.0,0004.36,0010.17,0003.58
2021-10-11 18:37:00,,0819.1,5.01,0.00,29.9,29.1,00.0,39.1,31.6,12.5,0000.0,0004.37,0010.90,0003.58
2021-10-11 18:38:00,,0819.1,4.99,0.00,29.9,29.1,00.0,39.1,31.6,12.3,0000.0,0004.31,0010.99,0003.59
2021-10-11 18:39:00,,0819.1,5.00,0.00,29.9,29.1,00.0,39.1,31.5,12.3,0000.0,0004.31,0011.05,0003.59
2021-10-11 18:40:00,,0819.1,5.01,0.00,29.9,29.1,00.0,39.1,31.6,12.4,0000.5,0004.31,0011.11,0003.60
2021-10-11 18:41:00,,0819.1,5.00,0.00,29.9,29.1,00.0,39.1,31.6,12.3,0000.0,0004.34,0011.12,0003.61
2021-10-11 18:42:00,,0819.0,4.99,0.00,29.9,29.1,00.0,39.0,31.5,12.4,0000.0,0004.35,0011.19,0003.61
2021-10-11 18:43:00,,0819.0,4.99,0.00,29.9,29.1,00.0,39.0,31.5,12.4,0000.0,0004.34,0011.04,0003.62
2021-10-11 18:44:00,,0819.0,5.00,0.00,29.9,29.1,00.0,39.0,31.5,12.4,0000.0,0004.33,0010.49,0003.61
2021-10-11 18:45:00,,0819.0,5.01,0.00,29.9,29.1,00.0,39.0,31.5,12.6,0000.1,0004.36,0010.61,0003.61
2021-10-11 18:46:00,,0819.0,4.99,0.00,29.9,29.1,00.0,39.0,31.5,12.6,0001.4,0004.36,0010.51,0003.60
2021-10-11 18:47:00,,0818.9,5.00,0.00,29.9,29.1,00.0,39.0,31.5,12.4,0001.7,0004.34,0010.10,0003.59
2021-10-11 18:48:00,,0818.9,5.01,0.00,29.9,29.1,00.0,39.0,31.5,12.3,0000.0,0004.32,0009.36,0003.58
2021-10-11 18:49:00,,0818.9,4.99,0.00,29.9,29.1,00.0,39.0,31.6,12.4,0000.0,0004.34,0009.56,0003.59
2021-10-11 18:50:00,,0819.0,5.01,0.00,29.9,29.2,00.0,39.0,31.6,12.4,0000.0,0004.37,0010.26,0003.58
2021-10-11 18:51:00,,0818.9,4.99,0.00,29.9,29.2,00.0,39.0,31.6,12.6,0000.0,0004.39,0010.99,0003.58
2021-10-11 18:52:00,,0818.8,4.99,0.00,29.9,29.2,00.0,39.0,31.6,12.4,0000.0,0004.39,0010.97,0003.58
2021-10-11 18:53:00,,0818.8,5.00,0.00,29.9,29.2,00.0,39.0,31.6,12.4,0000.0,0004.39,0010.95,0003.57
2021-10-11 18:54:00,,0818.8,5.01,0.00,29.9,29.2,00.0,39.0,31.6,12.4,0000.0,0004.40,0010.86,0003.57
2021-10-11 18:55:00,,0818.8,5.00,0.00,29.9,29.2,00.0,39.0,31.6,12.4,0000.0,0004.40,0010.98,0003.56
2021-10-11 18:56:00,,0818.8,4.99,0.00,29.9,28.7,00.0,39.0,31.5,12.4,0000.0,0004.38,0011.00,0003.56
2021-10-11 18:57:00,,0818.7,5.01,0.00,29.8,26.8,00.0,39.0,31.1,12.6,0000.0,0004.36,0011.54,0003.56
2021-10-11 18:58:00,,0818.7,5.00,0.00,29.7,26.2,00.0,38.9,30.9,12.6,0000.0,0004.36,0012.80,0003.55
2021-10-11 18:59:00,,0818.6,5.00,0.00,29.6,26.5,00.0,38.9,31.0,12.6,0000.0,0004.37,0013.54,0003.54
